Hourly Data Report for September 16, 2010

PETERBOROUGH AWOS
ONTARIO

44°14'00.000" N
78°22'00.000" W
191.40 m
6166420

Download Data

Hourly Data (September 2010)
Hourly Data Report for September 16, 2010
TIME
LST
Temp Definition
°C
Dew Point Definition
°C
Rel Hum Definition
%
Precip. Amount Definition
mm

Wind Dir Definition
10's deg

Wind Spd Definition
km/h
Visibility Definition
km
Stn Press Definition
kPa
Hmdx Definition


Wind Chill Definition


Weather Definition


00:00 9.0 8.4 96   LegendMM LegendMM 15.0 99.64      
01:00 8.9 8.5 97   LegendMM LegendMM 15.0 99.58      
02:00 9.6 8.9 95   LegendMM LegendMM 15.0 99.56      
03:00 9.7 9.4 98   LegendMM LegendMM 15.0 99.49      
04:00 10.5 9.3 92   LegendMM LegendMM 15.0 99.42      
05:00 11.2 8.8 85   LegendMM LegendMM 15.0 99.31      
06:00 10.1 8.4 89   LegendMM LegendMM 15.0 99.25      
07:00 11.6 9.4 86   LegendMM LegendMM 15.0 99.24      
08:00 11.8 9.8 88   LegendMM LegendMM 15.0 99.09      
09:00 12.0 9.8 86   LegendMM LegendMM 15.0 99.00      
10:00 11.6 11.1 97   LegendMM LegendMM 6.4 98.89     Moderate Rain
11:00 11.9 11.6 98   LegendMM LegendMM 4.0 98.70     Moderate Rain
12:00 12.0 11.5 97   LegendMM LegendMM 4.0 98.54     Moderate Rain
13:00 11.8 11.7 99   LegendMM LegendMM 6.4 98.42     Rain
14:00 11.8 11.8 100   LegendMM LegendMM 3.1 98.40     Rain
15:00 11.3 11.2 99   LegendMM LegendMM 6.4 98.31     Drizzle
16:00 10.9 10.9 100   LegendMM LegendMM 4.8 98.33     Drizzle
17:00 10.8 10.7 99   LegendMM LegendMM 9.7 98.34     Drizzle
18:00 10.6 10.4 99   LegendMM LegendMM 8.0 98.47     Drizzle
19:00 10.4 10.0 97   LegendMM LegendMM 15.0 98.57      
20:00 10.4 9.7 95   LegendMM LegendMM 15.0 98.62      
21:00 10.6 9.3 92   LegendMM LegendMM 15.0 98.75      
22:00 10.4 8.8 90   LegendMM LegendMM 15.0 98.82      
23:00 10.2 8.3 88   LegendMM LegendMM 15.0 98.92      

Notes on Data Quality.

Legend

  • E = Estimated
  • M = Missing
  • NA = Not Available*
  • [empty] = Indicates an unobserved value
Date modified: